Regional Weather Roundup
Issued by NWS

Home | Current Version | Previous Version | Graphics & Text | Print | Product List | Glossary On
Versions: 1 2 3 4 5 6 7 8 9 10 11 12 13 14 15 16 17 18 19 20 21 22 23 24 25 26 27
000
ASUS45 KBOI 171010
RWRID
WEATHER ROUNDUP FOR IDAHO
NATIONAL WEATHER SERVICE BOISE ID
400 AM MDT THU APR 17 2014

NOTE: "FAIR" INDICATES FEW OR NO CLOUDS BELOW 12000 FEET
WITH NO SIGNIFICANT WEATHER AND/OR OBSTRUCTIONS TO VISIBILITY

IDZ012-014-171100-
SOUTHWEST IDAHO


CITY           SKY/WX    TMP DP  RH WIND       PRES   REMARKS
BOISE          FAIR      42  23  46 SE9       29.97F
CALDWELL       FAIR      37  21  52 E5        29.99S WCI  34
MOUNTAIN HOME  FAIR      36  20  51 E5        29.98F WCI  32
$$

IDZ016-017-171100-
SOUTHCENTRAL IDAHO


CITY           SKY/WX    TMP DP  RH WIND       PRES   REMARKS
BURLEY         FAIR      36  21  54 SW9       30.00S WCI  29
JEROME         FAIR      37  21  52 SE6       30.01S WCI  32
TWIN FALLS     FAIR      39  18  42 S12       30.01S WCI  32
$$

IDZ019>023-171100-
SOUTHEAST IDAHO


CITY           SKY/WX    TMP DP  RH WIND       PRES   REMARKS
IDAHO FALLS    PTCLDY    38  17  42 S9        30.01R WCI  31
POCATELLO      CLEAR     38  15  39 S7        30.01F WCI  33
REXBURG        PTCLDY    39  15  37 S9        29.99S WCI  33
$$

IDZ006-010-011-018-031-032-171100-
CENTRAL IDAHO MOUNTAINS


CITY           SKY/WX    TMP DP  RH WIND       PRES   REMARKS
MCCALL         CLOUDY    31  23  72 CALM      29.98F
HAILEY         FAIR      34  21  60 NW8       30.01S WCI  27
STANLEY          N/A     23  17  78 CALM      30.04R
SALMON         FAIR      30  21  69 CALM      29.99S
CHALLIS        FAIR      31  18  58 CALM      29.99F
$$

IDZ002-004-006-007-026-171100-
NORTHERN IDAHO


CITY           SKY/WX    TMP DP  RH WIND       PRES   REMARKS
LEWISTON       CLOUDY    49  37  63 CALM      29.93F
LOWELL           N/A     43  39  86 N3        30.00F
COEUR D`ALENE  CLOUDY    45  39  81 S8        29.92F
MULLAN PASS    SNOW      30  30 100 S5        29.90F VSB 1/4 WCI  25
$$



USA.gov is the U.S. government's official web portal to all federal, state and local government web resources and services.